Погода в Крутой Горке

Россия / Курганская область     55°23′53″N   63°15′47″E
темп.,
°C
ветер,
м/с
пор.,
м/с
влажн.,
%
обл.,
%
осадки,
мм/ч
давл.,
гПа
погр.,
м
17 апреля, сб
сб1723:00+4всв37653 0.0 1027117
02:00+2всв35675 0.0 102774
05:00+1вюв33710 0.0 102832
08:00+4юв23600 0.0 1027175
11:00+8ю224347 0.0 1026783
14:00+10юз334172 0.0 10241099
17:00+10зюз44455 0.0 10231124
20:00+7зюз34675 0.0 102148
18 апреля, вс
вс1823:00+5зюз34775 0.0 102060
02:00+4зсз35824 0.0 101881
05:00+3зсз48765 0.0 1018129
08:00+5зсз612690 0.0 1017542
11:00+8ссз8105588 0.0 10171660
14:00+5ссв9105296 0.1 10211413
17:00+4ссв8935100 0.1 10242118
20:00+1св711415 0.0 1028802
19 апреля, пн
пн1923:00−1св510430 0.0 1030762
02:00−2всв47450 0.0 1032842
05:00−4св24500 0.0 1034315
08:00−2св46385 0.0 10351398
11:000ссв56325 0.0 10361702
14:00+1ссв56285 0.0 10352052
17:00+2ссв572989 0.0 10352185
20:00−1ссв22425 0.0 103525
20 апреля, вт
вт2023:00−2с11451 0.0 103610
02:00−2сз22465 0.0 103618
05:00−2сз34494 0.0 103767
08:00+1зсз46415 0.0 1036384
11:00+5зсз45315 0.0 10351422
14:00+7зсз563234 0.0 10331667
17:00+9сз68295 0.0 10321754
20:00+5зсз34461 0.0 103241
21 апреля, ср
ср2123:00+4зсз47603 0.0 1032114
02:00+2зсз49700 0.0 1032151
05:00+1зсз48750 0.0 1033136
08:00+4сз59600 0.0 1034348
11:00+9сз56440 0.0 1033916
14:00+12ссз45370 0.0 10331276
17:00+13ссз44350 0.0 10331459
20:00+9с22480 0.0 103410